TimeCDT,TemperatureF,Dew PointF,Humidity,Sea Level PressureIn,VisibilityMPH,Wind Direction,Wind SpeedMPH,Gust SpeedMPH,PrecipitationIn,Events,Conditions,WindDirDegrees,DateUTC
12:51 AM,60.1,59.0,96,30.06,7.0,SSE,3.5,-,N/A,,Clear,160,2013-07-04 05:51:00
1:51 AM,60.1,59.0,96,30.06,6.0,Calm,Calm,-,N/A,,Clear,0,2013-07-04 06:51:00
2:51 AM,59.0,59.0,100,30.05,7.0,Calm,Calm,-,N/A,,Clear,0,2013-07-04 07:51:00
3:51 AM,57.9,57.9,100,30.06,6.0,South,3.5,-,N/A,,Clear,170,2013-07-04 08:51:00
4:51 AM,59.0,59.0,100,30.07,5.0,Calm,Calm,-,N/A,,Partly Cloudy,0,2013-07-04 09:51:00
5:24 AM,57.2,57.2,100,30.08,4.0,Calm,Calm,-,N/A,,Partly Cloudy,0,2013-07-04 10:24:00
5:51 AM,59.0,59.0,100,30.08,4.0,Calm,Calm,-,N/A,,Scattered Clouds,0,2013-07-04 10:51:00
6:30 AM,60.8,60.8,100,30.09,5.0,Calm,Calm,-,N/A,,Scattered Clouds,0,2013-07-04 11:30:00
6:51 AM,61.0,60.1,97,30.09,5.0,Calm,Calm,-,N/A,,Scattered Clouds,0,2013-07-04 11:51:00
7:51 AM,64.9,61.0,87,30.09,10.0,Calm,Calm,-,N/A,,Scattered Clouds,0,2013-07-04 12:51:00
8:51 AM,70.0,61.0,73,30.09,10.0,WSW,4.6,-,N/A,,Scattered Clouds,240,2013-07-04 13:51:00
9:51 AM,73.9,61.0,64,30.08,10.0,Calm,Calm,-,N/A,,Scattered Clouds,0,2013-07-04 14:51:00
10:51 AM,77.0,62.1,60,30.08,10.0,Variable,3.5,-,N/A,,Scattered Clouds,0,2013-07-04 15:51:00
11:51 AM,78.1,61.0,56,30.08,10.0,Calm,Calm,-,N/A,,Mostly Cloudy,0,2013-07-04 16:51:00
12:51 PM,80.1,62.1,54,30.06,10.0,Variable,6.9,17.3,N/A,,Mostly Cloudy,0,2013-07-04 17:51:00
1:51 PM,80.1,60.1,50,30.06,10.0,SSW,11.5,-,N/A,,Mostly Cloudy,200,2013-07-04 18:51:00
2:51 PM,80.1,61.0,52,30.05,10.0,SW,12.7,-,N/A,,Mostly Cloudy,220,2013-07-04 19:51:00
3:51 PM,81.0,59.0,47,30.04,10.0,SSW,12.7,-,N/A,,Mostly Cloudy,200,2013-07-04 20:51:00
4:51 PM,80.1,61.0,52,30.03,10.0,SW,8.1,17.3,N/A,,Mostly Cloudy,230,2013-07-04 21:51:00
5:51 PM,79.0,60.1,52,30.03,10.0,SSW,9.2,-,N/A,,Mostly Cloudy,210,2013-07-04 22:51:00
6:51 PM,79.0,62.1,56,30.03,10.0,South,10.4,-,N/A,,Mostly Cloudy,190,2013-07-04 23:51:00
7:51 PM,77.0,62.1,60,30.03,10.0,South,8.1,-,N/A,,Mostly Cloudy,190,2013-07-05 00:51:00
8:51 PM,73.9,62.1,66,30.03,10.0,South,8.1,-,N/A,,Mostly Cloudy,190,2013-07-05 01:51:00
9:51 PM,72.0,62.1,71,30.05,10.0,South,8.1,-,N/A,,Mostly Cloudy,180,2013-07-05 02:51:00
10:51 PM,71.1,62.1,73,30.05,10.0,South,5.8,-,N/A,,Scattered Clouds,180,2013-07-05 03:51:00
11:51 PM,68.0,61.0,78,30.05,9.0,South,4.6,-,N/A,,Scattered Clouds,170,2013-07-05 04:51:00